Regional Weather Roundup
Issued by NWS

Home | Current Version | Previous Version | Graphics & Text | Print | Product List | Glossary On
Versions: 1 2 3 4 5 6 7 8 9 10 11 12 13 14 15 16 17 18 19 20 21 22 23 24 25 26 27 28 29 30 31 32 33 34 35 36 37 38 39 40 41 42 43 44 45 46 47 48 49 50
073
ASUS45 KSLC 081110
RWRUT

UTAH REGIONAL WEATHER ROUNDUP
NATIONAL WEATHER SERVICE SALT LAKE CITY UT
400 AM MST MON FEB 08 2016

UTZ001>011-023>025-081200-

NORTHERN UTAH

CITY           SKY/WX    TMP DP  RH WIND       PRES   REMARKS
BRIGHAM CITY   PTCLDY    16  13  88 CALM      30.68S
HILL AFB       PTCLDY    25  15  65 E10       30.65R WCI  15
LOGAN          FOG       11  10  96 CALM      30.68S VSB 1/4
OGDEN          PTCLDY    24  19  81 S9        30.65S WCI  14
PROVO AIRPORT  PTCLDY    10   7  85 CALM      30.68S
SALT LAKE CITY PTCLDY    26  21  81 S5        30.66S WCI  20
VERNAL         CLOUDY     6   2  83 N7        30.59R WCI  -6
WENDOVER       PTCLDY    25  21  86 CALM      30.67S
HEBER CITY     PTCLDY     7   3  85 CALM      30.63S FOG
WEST JORDAN    CLEAR     25  21  86 CALM      30.65S

$$

UTZ012>022-026-027-081200-

SOUTHERN/CENTRAL UTAH

CITY           SKY/WX    TMP DP  RH WIND       PRES   REMARKS
BLANDING       CLEAR     31  13  47 CALM      30.53S
BRYCE CANYON   PTCLDY    17   9  70 NW13      30.56R WCI   4
CEDAR CITY     PTCLDY    14  10  84 SE6       30.58S WCI   5
DELTA          MOCLDY     5   2  89 E3        30.66S VSB 1/4
HANKSVILLE     MOCLDY    10   9  92 CALM      30.60S
MILFORD        MOCLDY    11  32 100 N8        30.62S WCI  -1
MOAB/CYNLANDS  PTCLDY    13  11  92 W3        30.57R
PRICE          PTCLDY    18  12  77 E3        30.50F
ST GEORGE      MOSUNNY   37  21  52 SW3       30.52S
KANAB          CLEAR     34  23  64 N10       30.53F WCI  26

$$

REGIONAL REPORTS     COLORADO/ARIZONA

CITY           SKY/WX    TMP DP  RH WIND       PRES   REMARKS
CRAIG, CO      CLOUDY    -5 -10  79 CALM      30.55S
GRAND JUNCTION CLOUDY    12  10  92 E7        30.55F WCI   1
RIFLE          CLOUDY    11   6  81 S5        30.57F WCI   3
MONTROSE       CLOUDY    14   8  77 S8        30.58S WCI   3
CORTEZ         CLOUDY    14  10  84 NE9       30.45S WCI   2
PAGE, AZ       PTCLDY    30  22  72 CALM      30.52S
GRAND CANYON   PTCLDY    32  15  49 CALM      30.48R
KINGMAN        PTCLDY    41  21  44 CALM      30.39S
FLAGSTAFF      CLEAR     35  12  38 NE14      30.44R WCI  26

$$

REGIONAL REPORTS    NEVADA/IDAHO/WYOMING

CITY           SKY/WX    TMP DP  RH WIND       PRES   REMARKS
LAS VEGAS, NV  CLEAR     52  22  30 NE10      30.41R
ELY            PTCLDY     7   3  84 S14       30.64S WCI -10
ELKO           MOCLDY    10   6  84 E6        30.68R WCI   0
POCATELLO, ID  CLOUDY    24  23  96 NE7       30.69R FOG     WCI  16
BURLEY         PTCLDY    25  23  92 CALM      30.64S
EVANSTON, WY   CLOUDY    21  14  74 S9        30.59S WCI  11
ROCK SPRINGS   CLOUDY    26  16  65 W31       30.49R WCI   9

$$




USA.gov is the U.S. government's official web portal to all federal, state and local government web resources and services.